La Baie, Quebec

10:26 PM ADT on March 29, 2017 (GMT -0300)
La Baie

Weather History for CWUX - October, 2012

Change the Weather History Date:

Saturday, October 27, 2012

  Actual Average (CYBG) Record (CYBG)
Temperature  
Mean Temperature 46 °F -  
Max Temperature 53 °F 41 °F 68 °F (2000)
Min Temperature 38 °F 29 °F 23 °F (1998)
Degree Days  
Heating Degree Days 20    
Moisture  
Dew Point 41 °F    
Average Humidity 79    
Maximum Humidity 95    
Minimum Humidity 37    
Precipitation  
Precipitation 0.00 in - - ()
Sea Level Pressure  
Sea Level Pressure 30.13 in    
Wind  
Wind Speed 3 mph ()    
Max Wind Speed 9 mph    
Max Gust Speed 17 mph    
Averages and records for this station are not official NWS values.
T = Trace of Precipitation, MM = Missing Value Source: Averaged Metar Reports

Daily Weather History Graph

Daily Weather History Graph

Search for Another Location

Airport or City:

Trip Planner

Search our weather history database for the weather conditions in past years. The results will help you decide how hot, cold, wet, or windy it might be!

Date:

Astronomy

Oct. 27, 2012 Rise Set
Actual Time 8:22 AM ADT 6:32 PM ADT
Civil Twilight 7:49 AM ADT 7:04 PM ADT
Nautical Twilight 7:13 AM ADT 7:40 PM ADT
Astronomical Twilight 6:37 AM ADT 8:17 PM ADT
Moon 5:21 PM ADT (10/27) 6:07 AM ADT (10/27)
Length of Visible Light 11h 14m
Length of Day
10h 09m
Waxing Gibbous, 95% of the Moon is Illuminated
Oct 27
Waxing Gibbous
Oct 29
Full
Nov 6
Last Quarter
Nov 13
New
Nov 20
First Quarter

Hourly Weather History & Observations

Time (ADT) Temp. Windchill Dew Point Humidity Pressure Visibility Wind Dir Wind Speed Gust Speed Precip Events Conditions
12:00 AM 39.0 °F - 37.6 °F 95% 30.10 in - Calm Calm - N/A   Unknown
1:00 AM 41.5 °F - 40.1 °F 95% 30.10 in - South 2.3 mph - N/A   Unknown
2:00 AM 44.1 °F 40.1 °F 40.1 °F 86% 30.13 in - NW 6.9 mph 17.3 mph N/A   Unknown
3:00 AM 43 °F - 40 °F 85% 30.13 in - SW 2.3 mph - -  
3:00 AM 43.2 °F - 40.1 °F 89% 30.13 in - SW 2.3 mph - N/A   Unknown
4:00 AM 38.5 °F - 37.0 °F 95% 30.14 in - SSE 1.2 mph - N/A   Unknown
5:00 AM 41.9 °F - 40.3 °F 94% 30.15 in - SSW 2.3 mph - N/A   Unknown
6:00 AM 43.0 °F - 40.5 °F 91% 30.16 in - SSE 1.2 mph - N/A   Unknown
7:00 AM 44.1 °F - 41.5 °F 91% 30.16 in - SSW 1.2 mph - N/A   Unknown
8:00 AM 48.4 °F - 44.1 °F 85% 30.18 in - WSW 6.9 mph - N/A   Unknown
9:00 AM 49 °F - 44 °F 75% 30.19 in - West 5.8 mph - -  
9:00 AM 49.1 °F - 43.5 °F 81% 30.19 in - West 5.8 mph - N/A   Unknown
10:00 AM 49.6 °F - 43.9 °F 81% 30.19 in - WSW 5.8 mph - N/A   Unknown
11:00 AM 49.8 °F - 43.9 °F 80% 30.19 in - SW 3.5 mph - N/A   Unknown
12:00 PM 50.7 °F - 44.4 °F 79% 30.17 in - North 3.5 mph - N/A   Unknown
1:00 PM 51.1 °F - 45.3 °F 81% 30.16 in - NNE 1.2 mph - N/A   Unknown
2:00 PM 51.4 °F - 45.3 °F 80% 30.14 in - NE 3.5 mph - N/A   Unknown
3:00 PM 52 °F - 46 °F 71% 30.12 in - NNE 3.5 mph - -  
3:00 PM 52.2 °F - 45.5 °F 78% 30.12 in - NNE 3.5 mph - N/A   Unknown
4:00 PM 52.5 °F - 44.8 °F 75% 30.11 in - NE 4.6 mph - N/A   Unknown
5:00 PM 52.9 °F - 44.8 °F 74% 30.10 in - North 2.3 mph - N/A   Unknown
6:00 PM 49.1 °F - 42.8 °F 79% 30.09 in - NE 3.5 mph - N/A   Unknown
7:00 PM 46.9 °F - 41.5 °F 81% 30.09 in - NE 2.3 mph - N/A   Unknown
8:00 PM 49.8 °F - 36.3 °F 60% 30.08 in - East 6.9 mph - N/A   Unknown
9:00 PM 50 °F - 31 °F 37% 30.08 in - East 9.2 mph - -  
9:00 PM 49.8 °F - 31.5 °F 49% 30.08 in - East 9.2 mph - N/A   Unknown
10:00 PM 44.8 °F 41.6 °F 37.8 °F 76% 30.09 in - East 5.8 mph - N/A   Unknown
11:00 PM 44.6 °F 39.7 °F 36.5 °F 73% 30.09 in - East 9.2 mph - N/A   Unknown